Location: Lake Runnemede Observatory
(43.4843°N, 72.3851°W)
Time: 00:27:56
(UTC-04:00)

Amateur Radio Satellites - All Passes

Search period start: 29 March 2015 23:57
Search period end: 30 March 2015 23:57
Location: Lake Runnemede Observatory, 43.4843°N, 72.3851°W

Satellite Date Start Highest point End Downlink Frequencies (MHz)
Time Altitude Azimuth
ESTCUBE 1 30 Mar 00:03:35 00:07:37 30° 265° (W) 00:11:38 437.505/2401.250
QB50P1 30 Mar 00:07:26 00:11:41 83° 284° (WNW) 00:15:55 145.935-145.965
DUCHIFAT 1 30 Mar 00:09:04 00:13:18 81° 284° (WNW) 00:17:31 145.980
ANTELSAT 30 Mar 00:14:12 00:18:29 39° 289° (WNW) 00:22:48 437.575/2403.000
RS-15 30 Mar 00:16:23 00:25:03 25° 3° (N) 00:34:00 29.354- 29.394
SWISSCUBE 30 Mar 00:20:10 00:23:25 19° 63° (ENE) 00:26:49 437.505
QB50P2 30 Mar 00:22:28 00:26:39 55° 287° (WNW) 00:30:47 145.880/145.840
BEESAT 30 Mar 00:23:07 00:26:19 19° 63° (ENE) 00:29:40 436.000
ISS 30 Mar 00:44:06 00:46:58 28° 342° (NNW) 00:49:51 145.825
BUGSAT 1 30 Mar 00:48:28 00:52:15 39° 289° (WNW) 00:56:00 437.445
POPSAT HIP 1 30 Mar 00:51:35 00:55:15 28° 291° (WNW) 00:58:51 437.405
TISAT 1 30 Mar 00:58:38 01:02:31 34° 263° (W) 01:06:22 437.305
NANOSAT C BR1 30 Mar 01:02:17 01:05:38 23° 293° (WNW) 01:08:53 145.865
POLYITAN 1 30 Mar 01:07:03 01:10:14 20° 294° (WNW) 01:13:18 437.675
ITUPSAT 1 30 Mar 01:08:37 01:13:14 47° 71° (ENE) 01:17:52 437.325
SPROUT 30 Mar 01:11:11 01:14:39 23° 267° (W) 01:18:02 437.525
UNISAT 6 30 Mar 01:12:12 01:14:10 12° 298° (WNW) 01:15:57 437.425
YUBILEINY 30 Mar 01:21:00 01:29:53 86° 263° (W) 01:38:40 435.215
TIGRISAT 30 Mar 01:23:47 01:24:07 10° 300° (WNW) 01:24:11 435.000
PCSat 30 Mar 01:29:52 01:33:40 19° 253° (WSW) 01:37:17 145.827
Oscar 19 30 Mar 01:47:23 01:52:05 35° 96° (E) 01:56:49 437.125/150
SWISSCUBE 30 Mar 01:56:12 02:00:55 54° 260° (W) 02:05:40 437.505
BEESAT 30 Mar 01:59:05 02:03:48 55° 260° (W) 02:08:32 436.000
KKS-1 30 Mar 02:00:04 02:03:55 30° 68° (ENE) 02:07:49 437.445
Gurwin Techsat 1B 30 Mar 02:07:47 02:10:31 14° 87° (E) 02:13:29 435.225
SO-50 30 Mar 02:08:25 02:11:51 19° 36° (NE) 02:15:23 436.795
ISS 30 Mar 02:21:41 02:24:06 19° 2° (N) 02:26:31 145.825
STARS 30 Mar 02:30:37 02:34:41 40° 71° (ENE) 02:38:49 437.465
RS-15 30 Mar 02:31:01 02:41:33 42° 35° (NE) 02:52:37 29.354- 29.394
ITUPSAT 1 30 Mar 02:47:49 02:51:25 20° 269° (W) 02:54:54 437.325
ITAMSAT 1 30 Mar 02:53:50 02:58:49 46° 98° (E) 03:03:47 435.822/435.867
YUBILEINY 30 Mar 03:19:59 03:25:32 18° 282° (WNW) 03:30:35 435.215
Oscar 19 30 Mar 03:26:51 03:31:24 31° 293° (WNW) 03:35:53 437.125/150
AIST 1 30 Mar 03:28:21 03:31:33 20° 88° (E) 03:34:52
KKS-1 30 Mar 03:36:47 03:40:34 27° 265° (W) 03:44:20 437.445
O/OREOS (USA 219) 30 Mar 03:36:56 03:40:52 29° 105° (ESE) 03:44:54 437.305
MOZHAYETS 4 30 Mar 03:39:23 03:42:46 21° 66° (ENE) 03:46:17
Gurwin Techsat 1B 30 Mar 03:45:50 03:51:11 75° 286° (WNW) 03:56:28 435.225
SO-50 30 Mar 03:48:07 03:53:07 88° 232° (SW) 03:58:02 436.795
AO-7 30 Mar 03:49:16 03:55:38 25° 91° (E) 04:02:16 29.400- 29.500
ISS 30 Mar 03:58:08 04:01:09 35° 22° (NNE) 04:04:10 145.825
HORYU 2 30 Mar 04:02:39 04:06:54 40° 98° (E) 04:11:09 437.375
JAS-2 30 Mar 04:04:20 04:10:48 29° 89° (E) 04:17:00 435.910
STARS 30 Mar 04:08:06 04:11:22 20° 268° (W) 04:14:32 437.465
AUBIESAT-1 30 Mar 04:17:13 04:20:38 26° 61° (ENE) 04:24:22 437.475
ITAMSAT 1 30 Mar 04:33:55 04:38:05 25° 296° (WNW) 04:42:09 435.822/435.867
M-CUBED/EXP-1 PRIME 30 Mar 04:41:32 04:45:28 50° 67° (ENE) 04:49:48 437.505
RS-15 30 Mar 04:43:35 04:55:03 75° 241° (WSW) 05:06:58 29.354- 29.394
VERMONT LUNAR 30 Mar 04:57:32 04:59:32 15° 153° (SSE) 05:01:34 437.305
AIST 1 30 Mar 05:04:55 05:09:01 36° 285° (WNW) 05:13:05
MOZHAYETS 4 30 Mar 05:15:18 05:19:44 44° 262° (W) 05:24:11
O/OREOS (USA 219) 30 Mar 05:16:09 05:20:16 31° 303° (WNW) 05:24:22 437.305
CUBESAT XI-V 30 Mar 05:27:57 05:31:34 23° 66° (ENE) 05:35:16 437.345
Gurwin Techsat 1B 30 Mar 05:28:33 05:30:21 11° 303° (WNW) 05:31:53 435.225
SO-50 30 Mar 05:31:10 05:33:01 12° 252° (WSW) 05:34:35 436.795
ISS 30 Mar 05:34:33 05:37:34 38° 220° (SW) 05:40:35 145.825
GONETS M04 30 Mar 05:38:35 05:46:19 34° 67° (ENE) 05:54:14
HORYU 2 30 Mar 05:39:50 05:43:21 22° 294° (WNW) 05:46:45 437.375
AO-7 30 Mar 05:41:00 05:49:18 75° 291° (WNW) 05:57:33 29.400- 29.500
PHONESAT 2.4 30 Mar 05:43:16 05:45:21 15° 152° (SSE) 05:47:30 2401.200-2431.200
JAS-2 30 Mar 05:48:41 05:56:23 61° 290° (WNW) 06:03:25 435.910
AUBIESAT-1 30 Mar 05:51:41 05:55:21 32° 260° (W) 05:59:17 437.475
PRISM 30 Mar 05:59:46 06:03:36 36° 70° (ENE) 06:07:30 437.425
M-CUBED/EXP-1 PRIME 30 Mar 06:18:13 06:20:49 16° 267° (W) 06:23:22 437.505
STRAND 1 30 Mar 06:29:57 06:34:55 53° 72° (ENE) 06:39:57 437.568
VERMONT LUNAR 30 Mar 06:33:36 06:36:45 40° 168° (SSE) 06:39:55 437.305
DANDE 30 Mar 06:46:21 06:47:37 11° 70° (ENE) 06:49:15 436.750
RS-15 30 Mar 06:58:31 07:05:54 18° 260° (W) 07:12:36 29.354- 29.394
CUTE-I 30 Mar 06:59:02 07:04:15 55° 100° (E) 07:09:28 437.470
Cubesat XI-IV 30 Mar 06:59:25 07:04:40 56° 100° (E) 07:09:54 437.490
CUBESAT XI-V 30 Mar 07:04:19 07:08:48 41° 263° (W) 07:13:15 437.345
PHONESAT 2.4 30 Mar 07:19:52 07:23:12 40° 168° (SSE) 07:26:32 2401.200-2431.200
CUSAT 1 30 Mar 07:32:52 07:36:58 47° 78° (ENE) 07:42:25 437.405
GONETS M04 30 Mar 07:35:06 07:43:43 58° 268° (W) 07:52:15
AO-7 30 Mar 07:35:25 07:40:54 19° 311° (NW) 07:46:06 29.400- 29.500
JAS-2 30 Mar 07:35:56 07:39:57 15° 309° (NW) 07:43:29 435.910
PRISM 30 Mar 07:35:59 07:39:14 21° 267° (W) 07:42:23 437.425
STRAND 1 30 Mar 08:10:42 08:14:31 20° 269° (W) 08:18:10 437.568
VERMONT LUNAR 30 Mar 08:10:58 08:14:13 49° 185° (S) 08:17:29 437.305
CUTE 1.7 + AOD 2 30 Mar 08:24:46 08:25:50 11° 87° (E) 08:27:10 437.475
DANDE 30 Mar 08:27:00 08:30:59 67° 261° (W) 08:36:22 436.750
HO-68 30 Mar 08:38:06 08:43:50 26° 92° (E) 08:49:45 435.675
GOMX 1 30 Mar 08:38:48 08:41:54 19° 92° (E) 08:45:12 467.674
CUTE-I 30 Mar 08:39:57 08:44:00 22° 297° (WNW) 08:47:53 437.470
Cubesat XI-IV 30 Mar 08:40:25 08:44:25 21° 297° (WNW) 08:48:17 437.490
AAUSAT CUBESAT 2 30 Mar 08:46:15 08:47:19 11° 87° (E) 08:48:38 437.432
SEEDS 30 Mar 08:51:16 08:54:13 18° 91° (E) 08:57:17 437.485
PHONESAT 2.4 30 Mar 08:57:52 09:01:18 51° 184° (S) 09:04:45 2401.200-2431.200
TIGRISAT 30 Mar 09:10:35 09:11:35 11° 61° (ENE) 09:12:48 435.000
COMPASS 1 30 Mar 09:12:04 09:15:34 25° 94° (E) 09:19:08 437.405
CUSAT 1 30 Mar 09:16:31 09:19:44 18° 265° (W) 09:23:22 437.405
Oscar 11 30 Mar 09:17:12 09:18:45 12° 87° (E) 09:20:31 145.826/435.025
BEESAT 3 30 Mar 09:23:12 09:25:44 17° 112° (ESE) 09:28:25 437.485
BRITE-PL 30 Mar 09:33:38 09:37:49 71° 285° (WNW) 09:42:11 437.365/2234.400
CINEMA 3 30 Mar 09:34:16 09:38:02 27° 95° (E) 09:42:01 145.822/145.860
UWE-3 30 Mar 09:35:24 09:37:19 13° 88° (E) 09:39:29 435.000/436.395/437.385
ANTELSAT 30 Mar 09:38:49 09:42:03 22° 66° (ENE) 09:45:26 437.575/2403.000
CUBEBUG 2 30 Mar 09:41:17 09:44:18 18° 91° (E) 09:47:31 437.445
ZACube-1 30 Mar 09:42:22 09:44:02 12° 88° (E) 09:45:57 437.345
QB50P2 30 Mar 09:43:11 09:45:07 13° 63° (ENE) 09:47:13 145.880/145.840
CANX-2 30 Mar 09:44:11 09:48:32 90° 284° (WNW) 09:52:51 2200.000
VERMONT LUNAR 30 Mar 09:48:48 09:51:35 24° 201° (SSW) 09:54:21 437.305
DELFI C3 30 Mar 09:54:13 09:57:26 22° 93° (E) 10:00:43 145.870
CUTE 1.7 + AOD 2 30 Mar 09:58:01 10:02:20 70° 285° (WNW) 10:06:37 437.475
DOVE 4 30 Mar 10:00:36 10:04:57 84° 282° (WNW) 10:09:30 437.250
AIST 2 30 Mar 10:04:29 10:06:34 14° 110° (ESE) 10:08:51 435.215
BUGSAT 1 30 Mar 10:05:48 10:08:15 16° 65° (ENE) 10:10:50 437.445
POPSAT HIP 1 30 Mar 10:10:09 10:13:31 24° 68° (ENE) 10:16:56 437.405
GOMX 1 30 Mar 10:16:15 10:20:14 39° 288° (WNW) 10:24:22 467.674
AAUSAT CUBESAT 2 30 Mar 10:19:17 10:23:31 68° 285° (WNW) 10:27:42 437.432
NANOSAT C BR1 30 Mar 10:20:02 10:23:42 30° 69° (ENE) 10:27:25 145.865
UKube-1 30 Mar 10:22:34 10:25:54 22° 93° (E) 10:29:18 .
BEESAT 2 30 Mar 10:23:19 10:27:21 59° 120° (ESE) 10:31:28 435.950
POLYITAN 1 30 Mar 10:24:56 10:28:44 34° 70° (ENE) 10:32:35 437.675
HO-68 30 Mar 10:25:01 10:32:08 64° 291° (WNW) 10:39:12 435.675
HUMSAT D 30 Mar 10:25:36 10:28:26 18° 91° (E) 10:31:24 437.325/437.525
SEEDS 30 Mar 10:26:12 10:30:15 41° 288° (WNW) 10:34:17 437.485
DX 1 30 Mar 10:33:36 10:37:25 30° 96° (E) 10:41:15 434.975-435.025
UNISAT 6 30 Mar 10:33:38 10:37:54 82° 76° (ENE) 10:42:16 437.425
PHONESAT 2.4 30 Mar 10:36:17 10:39:19 26° 201° (SSW) 10:42:20 2401.200-2431.200
TIGRISAT 30 Mar 10:43:30 10:47:45 81° 257° (WSW) 10:52:06 435.000
COMPASS 1 30 Mar 10:47:33 10:51:18 30° 290° (WNW) 10:54:59 437.405
Oscar 11 30 Mar 10:51:07 10:55:28 67° 286° (WNW) 10:59:47 145.826/435.025
BEESAT 3 30 Mar 10:59:25 11:03:26 51° 308° (NW) 11:07:30 437.485
QB50P1 30 Mar 11:01:10 11:05:23 86° 78° (ENE) 11:09:38 145.935-145.965
50 SAT 30 Mar 11:01:13 11:04:39 27° 95° (E) 11:08:09 437.505
DUCHIFAT 1 30 Mar 11:02:29 11:06:43 87° 77° (ENE) 11:10:56 145.980
FUNcube-1 30 Mar 11:03:15 11:07:40 87° 102° (ESE) 11:12:09 145.935
UWE-3 30 Mar 11:09:57 11:14:20 64° 285° (WNW) 11:18:49 435.000/436.395/437.385
CINEMA 3 30 Mar 11:11:24 11:15:16 30° 290° (WNW) 11:19:13 145.822/145.860
ANTELSAT 30 Mar 11:14:44 11:18:41 36° 263° (W) 11:22:41 437.575/2403.000
CUBEBUG 1 30 Mar 11:15:17 11:18:06 17° 91° (E) 11:21:04 437.445
QB50P2 30 Mar 11:16:23 11:20:34 63° 259° (WSW) 11:24:47 145.880/145.840
ZACube-1 30 Mar 11:16:32 11:20:54 67° 286° (WNW) 11:25:21 437.345
VELOX 1 30 Mar 11:17:01 11:21:08 38° 97° (E) 11:25:16 145.980
CUBEBUG 2 30 Mar 11:17:02 11:21:16 45° 287° (WNW) 11:25:35 437.445
AISAT 30 Mar 11:22:01 11:26:16 45° 99° (E) 11:30:30 437.250
DELFI C3 30 Mar 11:29:00 11:32:40 31° 290° (WNW) 11:36:16 145.870
BUGSAT 1 30 Mar 11:39:23 11:43:25 49° 261° (W) 11:47:26 437.445
AIST 2 30 Mar 11:40:27 11:44:42 66° 307° (NW) 11:48:59 435.215
POPSAT HIP 1 30 Mar 11:45:31 11:49:18 31° 264° (W) 11:53:03 437.405
ESTCUBE 1 30 Mar 11:54:35 11:59:00 51° 99° (E) 12:03:23 437.505/2401.250
NANOSAT C BR1 30 Mar 11:56:06 11:59:36 24° 266° (W) 12:03:02 145.865
UKube-1 30 Mar 11:58:12 12:02:11 35° 290° (WNW) 12:06:06 .
HUMSAT D 30 Mar 12:00:24 12:04:27 43° 288° (WNW) 12:08:30 437.325/437.525
POLYITAN 1 30 Mar 12:01:29 12:04:47 21° 267° (W) 12:07:59 437.675
BEESAT 2 30 Mar 12:02:50 12:05:53 19° 320° (NW) 12:08:53 435.950
DX 1 30 Mar 12:09:56 12:13:36 26° 293° (WNW) 12:17:10 434.975-435.025
HO-68 30 Mar 12:15:03 12:18:38 14° 310° (NW) 12:21:52 435.675
YUBILEINY 30 Mar 12:29:16 12:35:31 23° 80° (E) 12:42:08 435.215
50 SAT 30 Mar 12:36:08 12:39:31 25° 291° (WNW) 12:42:51 437.505
ITAMSAT 1 30 Mar 12:37:39 12:39:20 12° 57° (ENE) 12:41:16 435.822/435.867
TISAT 1 30 Mar 12:41:58 12:45:44 32° 96° (E) 12:49:32 437.305
FUNcube-1 30 Mar 12:42:20 12:43:26 11° 298° (WNW) 12:44:20 145.935
CUBEBUG 1 30 Mar 12:50:37 12:54:47 44° 288° (WNW) 12:58:52 437.445
VELOX 1 30 Mar 12:54:06 12:57:30 22° 294° (WNW) 13:00:49 145.980
SPROUT 30 Mar 12:55:40 12:59:54 55° 100° (E) 13:04:06 437.525
AISAT 30 Mar 12:59:26 13:02:35 19° 295° (WNW) 13:05:38 437.250
Oscar 19 30 Mar 13:05:19 13:10:18 56° 72° (ENE) 13:15:20 437.125/150
ITUPSAT 1 30 Mar 13:10:47 13:11:50 11° 86° (E) 13:13:11 437.325
AIST 2 30 Mar 13:22:21 13:24:11 12° 327° (NNW) 13:25:54 435.215
Gurwin Techsat 1B 30 Mar 13:29:27 13:33:47 27° 65° (ENE) 13:38:14 435.225
ESTCUBE 1 30 Mar 13:32:27 13:35:31 18° 296° (WNW) 13:38:27 437.505/2401.250
O/OREOS (USA 219) 30 Mar 13:45:08 13:49:42 69° 65° (ENE) 13:54:12 437.305
SWISSCUBE 30 Mar 13:55:34 13:59:56 35° 96° (E) 14:04:18 437.505
BEESAT 30 Mar 13:58:21 14:02:42 34° 96° (E) 14:07:04 436.000
ITAMSAT 1 30 Mar 14:12:52 14:18:04 79° 75° (ENE) 14:23:20 435.822/435.867
TISAT 1 30 Mar 14:18:02 14:21:25 23° 293° (WNW) 14:24:42 437.305
JAS-2 30 Mar 14:19:05 14:23:18 17° 53° (NE) 14:28:01 435.910
YUBILEINY 30 Mar 14:22:39 14:31:28 78° 279° (W) 14:40:23 435.215
PCSat 30 Mar 14:28:07 14:33:15 46° 114° (ESE) 14:38:28 145.827
SPROUT 30 Mar 14:33:04 14:35:36 15° 296° (WNW) 14:37:59 437.525
ITUPSAT 1 30 Mar 14:45:39 14:50:29 84° 285° (WNW) 14:55:16 437.325
Oscar 19 30 Mar 14:46:28 14:50:05 19° 270° (W) 14:53:32 437.125/150
AO-7 30 Mar 14:49:22 14:56:49 40° 60° (ENE) 15:04:24 29.400- 29.500
HORYU 2 30 Mar 15:02:07 15:06:18 43° 70° (ENE) 15:10:32 437.375
Gurwin Techsat 1B 30 Mar 15:08:32 15:13:35 43° 262° (W) 15:18:39 435.225
AIST 1 30 Mar 15:10:34 15:14:52 60° 79° (E) 15:19:05
KKS-1 30 Mar 15:25:54 15:30:15 52° 100° (E) 15:34:37 437.445
O/OREOS (USA 219) 30 Mar 15:26:39 15:28:36 12° 261° (W) 15:30:17 437.305
SWISSCUBE 30 Mar 15:33:38 15:37:42 27° 293° (WNW) 15:41:40 437.505
BEESAT 30 Mar 15:36:23 15:40:28 28° 293° (WNW) 15:44:28 436.000
STARS 30 Mar 15:55:13 15:59:37 69° 101° (E) 16:04:02 437.465
ITAMSAT 1 30 Mar 15:55:39 15:58:18 13° 273° (W) 16:00:40 435.822/435.867
JAS-2 30 Mar 16:00:07 16:07:04 74° 73° (ENE) 16:14:47 435.910
PCSat 30 Mar 16:12:07 16:16:54 30° 313° (NW) 16:21:39 145.827
YUBILEINY 30 Mar 16:24:24 16:30:09 18° 304° (NW) 16:35:28 435.215
ITUPSAT 1 30 Mar 16:26:14 16:27:41 11° 301° (WNW) 16:28:53 437.325
HORYU 2 30 Mar 16:39:58 16:43:12 19° 268° (W) 16:46:20 437.375
AO-7 30 Mar 16:41:27 16:49:30 51° 259° (W) 16:57:31 29.400- 29.500
CUTE-I 30 Mar 16:45:04 16:47:59 15° 60° (ENE) 16:51:06 437.470
Cubesat XI-IV 30 Mar 16:45:31 16:48:31 16° 60° (ENE) 16:51:43 437.490
AIST 1 30 Mar 16:50:18 16:52:02 12° 275° (W) 16:53:33
KKS-1 30 Mar 17:03:36 17:06:33 17° 296° (WNW) 17:09:22 437.445
RS-15 30 Mar 17:04:02 17:08:13 14° 98° (E) 17:13:22 29.354- 29.394
MOZHAYETS 4 30 Mar 17:09:12 17:13:35 39° 97° (E) 17:17:57
AUBIESAT-1 30 Mar 17:32:00 17:35:25 20° 95° (E) 17:38:55 437.475
STARS 30 Mar 17:33:24 17:35:36 13° 298° (WNW) 17:37:38 437.465
BEESAT 3 30 Mar 17:40:06 17:43:03 19° 40° (NE) 17:46:03 437.485
JAS-2 30 Mar 17:47:28 17:53:00 23° 274° (W) 17:58:39 435.910
M-CUBED/EXP-1 PRIME 30 Mar 17:56:45 18:01:17 38° 101° (ESE) 18:05:43 437.505
SO-50 30 Mar 18:04:38 18:08:12 23° 113° (ESE) 18:11:59 436.795
CUTE-I 30 Mar 18:22:04 18:27:27 83° 256° (WSW) 18:32:51 437.470
Cubesat XI-IV 30 Mar 18:22:38 18:28:01 81° 256° (WSW) 18:33:26 437.490
AIST 2 30 Mar 18:23:36 18:26:29 17° 39° (NE) 18:29:24 435.215
STRAND 1 30 Mar 18:40:36 18:43:36 16° 89° (E) 18:46:49 437.568
GONETS M04 30 Mar 18:41:37 18:49:10 36° 86° (E) 18:56:56
BEESAT 2 30 Mar 18:41:48 18:45:53 52° 52° (NE) 18:49:53 435.950
MOZHAYETS 4 30 Mar 18:46:55 18:50:37 23° 294° (WNW) 18:54:12
CUBESAT XI-V 30 Mar 18:59:45 19:04:11 44° 98° (E) 19:08:35 437.345
AUBIESAT-1 30 Mar 19:05:49 19:10:33 52° 293° (WNW) 19:15:08 437.475
RS-15 30 Mar 19:07:56 19:18:37 67° 117° (ESE) 19:29:33 29.354- 29.394
HO-68 30 Mar 19:08:48 19:14:09 24° 57° (ENE) 19:19:43 435.675
BRITE-PL 30 Mar 19:09:29 19:12:08 16° 66° (ENE) 19:14:52 437.365/2234.400
PRISM 30 Mar 19:16:18 19:20:22 49° 100° (E) 19:24:25 437.425
BEESAT 3 30 Mar 19:17:25 19:21:29 58° 240° (WSW) 19:25:27 437.485
CUTE 1.7 + AOD 2 30 Mar 19:20:18 19:20:44 10° 61° (ENE) 19:21:24 437.475
M-CUBED/EXP-1 PRIME 30 Mar 19:31:50 19:36:00 29° 298° (WNW) 19:40:04 437.505
DOVE 4 30 Mar 19:33:29 19:34:45 11° 63° (ENE) 19:36:13 437.250
SO-50 30 Mar 19:43:58 19:48:29 47° 311° (NW) 19:53:10 436.795
SEEDS 30 Mar 19:45:19 19:47:50 16° 65° (ENE) 19:50:32 437.485
GOMX 1 30 Mar 19:48:34 19:52:05 24° 69° (ENE) 19:55:35 467.674
AIST 2 30 Mar 20:01:19 20:05:34 70° 239° (WSW) 20:09:44 435.215
COMPASS 1 30 Mar 20:05:04 20:08:11 21° 67° (ENE) 20:11:23 437.405
CUTE-I 30 Mar 20:07:23 20:08:30 10° 275° (W) 20:09:13 437.470
Cubesat XI-IV 30 Mar 20:08:24 20:09:07 10° 276° (W) 20:09:25 437.490
Oscar 11 30 Mar 20:13:55 20:15:27 12° 62° (ENE) 20:17:11 145.826/435.025
STRAND 1 30 Mar 20:18:17 20:23:21 64° 288° (WNW) 20:28:24 437.568
BEESAT 2 30 Mar 20:21:01 20:23:40 16° 248° (WSW) 20:26:08 435.950
UWE-3 30 Mar 20:35:01 20:36:31 12° 63° (ENE) 20:38:13 435.000/436.395/437.385
GONETS M04 30 Mar 20:37:19 20:45:47 52° 286° (WNW) 20:54:16
CUBESAT XI-V 30 Mar 20:37:52 20:41:22 21° 295° (WNW) 20:44:43 437.345
CINEMA 3 30 Mar 20:37:53 20:41:24 27° 69° (ENE) 20:44:57 145.822/145.860
CANX-2 30 Mar 20:38:06 20:42:19 75° 76° (ENE) 20:46:36 2200.000
ZACube-1 30 Mar 20:40:55 20:42:05 11° 62° (ENE) 20:43:27 437.345
CUBEBUG 2 30 Mar 20:41:41 20:44:19 17° 65° (ENE) 20:47:05 437.445
DELFI C3 30 Mar 20:43:50 20:46:30 18° 66° (ENE) 20:49:18 145.870
CUSAT 1 30 Mar 20:45:49 20:48:22 34° 98° (E) 20:50:47 437.405
BRITE-PL 30 Mar 20:45:49 20:50:24 55° 260° (W) 20:54:42 437.365/2234.400
CUTE 1.7 + AOD 2 30 Mar 20:51:49 20:56:04 85° 261° (W) 21:00:22 437.475
PRISM 30 Mar 20:52:52 20:55:31 16° 296° (WNW) 20:57:59 437.425
HO-68 30 Mar 20:54:05 21:01:15 76° 256° (WSW) 21:08:29 435.675
DOVE 4 30 Mar 21:07:47 21:12:05 72° 258° (WSW) 21:16:16 437.250
AAUSAT CUBESAT 2 30 Mar 21:11:04 21:15:14 87° 255° (WSW) 21:19:29 437.432
UKube-1 30 Mar 21:18:51 21:22:13 23° 66° (ENE) 21:25:41 .
SEEDS 30 Mar 21:19:12 21:23:18 50° 261° (W) 21:27:27 437.485
HUMSAT D 30 Mar 21:19:40 21:21:56 15° 64° (ENE) 21:24:21 437.325/437.525
RS-15 30 Mar 21:21:26 21:31:45 44° 323° (NW) 21:42:15 29.354- 29.394
GOMX 1 30 Mar 21:26:12 21:30:11 31° 264° (W) 21:33:58 467.674
SO-50 30 Mar 21:28:32 21:30:18 12° 333° (NNW) 21:31:56 436.795
DX 1 30 Mar 21:30:24 21:34:14 31° 69° (ENE) 21:38:07 434.975-435.025
PCSat 30 Mar 21:33:15 21:35:05 12° 30° (NNE) 21:37:07 145.827
COMPASS 1 30 Mar 21:39:48 21:43:41 36° 263° (W) 21:47:35 437.405
DANDE 30 Mar 21:43:48 21:46:32 34° 283° (WNW) 21:48:59 436.750
Oscar 11 30 Mar 21:46:47 21:51:06 75° 259° (W) 21:55:27 145.826/435.025
50 SAT 30 Mar 21:49:07 21:51:54 19° 67° (ENE) 21:54:48 437.505
FUNcube-1 30 Mar 22:00:20 22:04:28 78° 77° (ENE) 22:08:39 145.935
UWE-3 30 Mar 22:08:28 22:12:35 67° 259° (WSW) 22:16:45 435.000/436.395/437.385
CUBEBUG 1 30 Mar 22:12:56 22:15:55 18° 65° (ENE) 22:19:00 437.445
ZACube-1 30 Mar 22:13:48 22:17:56 73° 258° (WSW) 22:22:07 437.345
ISS 30 Mar 22:14:08 22:17:03 31° 139° (SE) 22:20:01 145.825
CINEMA 3 30 Mar 22:15:06 22:18:38 25° 266° (W) 22:22:05 145.822/145.860
VELOX 1 30 Mar 22:15:48 22:19:57 40° 70° (ENE) 22:24:08 145.980
CUBEBUG 2 30 Mar 22:16:46 22:20:44 44° 261° (W) 22:24:44 437.445
DELFI C3 30 Mar 22:17:31 22:21:24 42° 262° (W) 22:25:18 145.870
AISAT 30 Mar 22:21:00 22:25:16 47° 72° (ENE) 22:29:32 437.250
UNISAT 6 30 Mar 22:25:22 22:28:13 17° 90° (E) 22:31:18 437.425
TIGRISAT 30 Mar 22:34:34 22:37:53 20° 92° (E) 22:41:22 435.000
YUBILEINY 30 Mar 22:38:03 22:40:46 12° 49° (NE) 22:44:06 435.215
GONETS M04 30 Mar 22:43:26 22:45:25 11° 312° (NW) 22:46:44
HO-68 30 Mar 22:47:01 22:50:22 13° 276° (W) 22:53:12 435.675
QB50P1 30 Mar 22:47:03 22:48:52 13° 89° (E) 22:50:53 145.935-145.965
DUCHIFAT 1 30 Mar 22:48:04 22:49:51 13° 89° (E) 22:51:52 145.980
HUMSAT D 30 Mar 22:53:21 22:57:20 51° 261° (W) 23:01:22 437.325/437.525
UKube-1 30 Mar 22:54:13 22:58:13 35° 263° (W) 23:02:12 .
ESTCUBE 1 30 Mar 22:55:13 22:59:39 55° 73° (ENE) 23:04:08 437.505/2401.250
QB50P2 30 Mar 23:01:28 23:04:27 19° 92° (E) 23:07:34 145.880/145.840
ANTELSAT 30 Mar 23:04:56 23:09:17 41° 98° (E) 23:13:43 437.575/2403.000
DX 1 30 Mar 23:06:53 23:10:32 25° 266° (W) 23:14:07 434.975-435.025
PCSat 30 Mar 23:14:40 23:19:57 49° 53° (NE) 23:25:12 145.827
BUGSAT 1 30 Mar 23:21:09 23:24:09 20° 93° (E) 23:27:15 437.445
50 SAT 30 Mar 23:23:03 23:26:37 34° 263° (W) 23:30:14 437.505
POPSAT HIP 1 30 Mar 23:29:14 23:33:08 36° 97° (E) 23:37:05 437.405
TISAT 1 30 Mar 23:35:34 23:39:11 29° 69° (ENE) 23:42:51 437.305
NANOSAT C BR1 30 Mar 23:39:05 23:43:10 47° 99° (E) 23:47:16 145.865
RS-15 30 Mar 23:39:23 23:48:03 25° 356° (N) 23:56:56 29.354- 29.394
POLYITAN 1 30 Mar 23:44:38 23:48:50 56° 100° (E) 23:53:00 437.675
CUBEBUG 1 30 Mar 23:47:44 23:51:59 46° 261° (W) 23:56:14 437.445
ISS 30 Mar 23:50:19 23:53:25 39° 336° (NNW) 23:56:31 145.825
